Date,TemperatureHighF,TemperatureAvgF,TemperatureLowF,DewpointHighF,DewpointAvgF,DewpointLowF,HumidityHigh,HumidityAvg,HumidityLow,PressureMaxIn,PressureMinIn,WindSpeedMaxMPH,WindSpeedAvgMPH,GustSpeedMaxMPH,PrecipitationSumIn
2013-5-1,84,78,76,74,72,70,88,80,72,0.00,40.00,0,0,0,0.06
2013-5-2,81,74,67,73,70,65,95,87,74,0.00,40.00,0,0,0,2.76
2013-5-3,85,75,64,74,68,63,97,81,59,0.00,40.00,0,0,0,0.02
2013-5-4,83,78,73,69,67,60,82,70,60,0.00,40.00,0,0,0,0.00
2013-5-5,79,74,71,63,59,56,70,59,50,0.00,40.00,0,0,0,0.00
2013-5-6,82,75,66,63,60,57,88,61,42,0.00,40.00,0,0,0,0.00
2013-5-7,84,74,64,67,64,62,95,73,51,0.00,40.00,0,0,0,0.00
2013-5-8,82,74,62,68,65,60,95,74,56,0.00,40.00,0,0,0,0.00
2013-5-9,86,79,74,73,69,64,81,70,59,0.00,40.00,0,0,0,0.00
2013-5-10,89,80,74,75,69,-100,95,76,53,0.00,40.00,0,0,0,0.05
2013-5-11,88,82,76,74,73,71,92,75,59,0.00,40.00,0,0,0,0.03
2013-5-12,88,81,77,74,70,-100,90,73,55,0.00,40.00,5,1,11,0.00
2013-5-13,88,81,74,74,72,68,90,74,61,0.00,40.00,9,5,17,0.00
2013-5-14,84,80,77,71,67,61,80,66,54,0.00,40.00,12,9,22,0.00
2013-5-15,83,78,75,67,63,61,68,60,51,0.00,40.00,13,7,23,0.00
2013-5-16,85,75,75,66,46,-100,69,61,52,0.00,40.00,10,7,19,0.00
2013-5-17,86,80,69,74,66,-100,92,73,63,0.00,40.00,7,4,13,0.00
2013-5-18,88,81,73,74,72,71,93,75,60,0.00,40.00,7,4,16,0.00
2013-5-19,88,82,76,72,71,68,81,69,57,0.00,40.00,8,5,16,0.00
2013-5-20,88,81,76,74,71,68,84,73,61,0.00,40.00,11,6,26,0.00
2013-5-21,86,81,77,76,73,70,85,77,65,0.00,40.00,7,5,15,0.18
2013-5-22,90,82,73,75,73,71,95,77,60,0.00,40.00,8,4,15,0.08
2013-5-23,89,82,72,75,73,70,92,75,61,0.00,40.00,8,4,15,0.00
2013-5-24,89,80,71,75,71,69,95,75,56,0.00,40.00,7,4,13,0.00
2013-5-25,90,80,69,74,70,67,94,72,53,0.00,40.00,12,6,22,0.04
2013-5-26,88,82,78,68,66,61,68,58,41,0.00,40.00,12,9,23,0.04
2013-5-27,83,78,74,74,71,66,90,78,65,0.00,40.00,14,8,25,0.31
2013-5-28,86,78,74,75,72,70,91,83,71,0.00,40.00,11,7,24,0.82
2013-5-29,79,76,72,74,72,70,96,88,76,0.00,40.00,8,5,20,1.72
2013-5-30,86,79,74,76,74,72,94,83,69,0.00,40.00,8,3,14,0.01
2013-5-31,87,80,74,76,74,70,91,80,68,0.00,40.00,7,5,15,0.01